LNR88VJ EBCI-LIRZ

Flight info

Callsign LNR88VJ
Flight time 1h 27m
Altitude 37000
Route RITAX M624 DIK M150 KRH DCT BATUB DCT TIRUL M738 NATAG DCT LORLO DCT GAVRA/N0373F190 Z806 VERUN Q25 LAKOX
Aircraft B738/M-SDE2E3FGHIRWXY/LB1

Departure

Time 2026-04-27 10:38
Airport Brussels South Charleroi Airport (EBCI)

Arrival

Time 2026-04-27 12:06
Airport Perugia San Francesco d'Assisi – Umbria International Airport (LIRZ)
Time Latitude Longitude Altitude Speed Heading
2026-04-27 10:17 50.46855 4.47042 584 ft 0 kts 335°
2026-04-27 10:29 50.46847 4.47048 584 ft 4 kts 335°
2026-04-27 10:29 50.46826 4.47062 584 ft 4 kts 332°
2026-04-27 10:29 50.46809 4.47086 584 ft 5 kts 274°
2026-04-27 10:30 50.46816 4.47123 585 ft 5 kts 243°
2026-04-27 10:30 50.46819 4.47134 585 ft 3 kts 245°
2026-04-27 10:30 50.46820 4.47134 585 ft 0 kts 245°
2026-04-27 10:32 50.46819 4.47132 585 ft 1 kts 245°
2026-04-27 10:32 50.46796 4.47054 584 ft 15 kts 245°
2026-04-27 10:32 50.46750 4.46894 585 ft 16 kts 245°
2026-04-27 10:32 50.46704 4.46781 588 ft 12 kts 206°
2026-04-27 10:33 50.46623 4.46798 591 ft 12 kts 191°
2026-04-27 10:33 50.46575 4.46694 590 ft 13 kts 245°
2026-04-27 10:33 50.46532 4.46549 589 ft 16 kts 245°
2026-04-27 10:33 50.46478 4.46363 588 ft 20 kts 245°
2026-04-27 10:34 50.46419 4.46159 590 ft 22 kts 245°
2026-04-27 10:34 50.46355 4.45939 596 ft 22 kts 245°
2026-04-27 10:34 50.46286 4.45700 596 ft 26 kts 245°
2026-04-27 10:34 50.46212 4.45446 598 ft 25 kts 246°
2026-04-27 10:35 50.46143 4.45210 598 ft 23 kts 245°
2026-04-27 10:35 50.46078 4.44985 595 ft 22 kts 245°
2026-04-27 10:35 50.46013 4.44766 595 ft 22 kts 245°
2026-04-27 10:35 50.45952 4.44554 599 ft 21 kts 245°
2026-04-27 10:36 50.45876 4.44362 598 ft 20 kts 232°
2026-04-27 10:36 50.45789 4.44189 596 ft 20 kts 232°
2026-04-27 10:36 50.45716 4.44042 593 ft 15 kts 232°
2026-04-27 10:36 50.45638 4.43988 593 ft 12 kts 149°
2026-04-27 10:37 50.45625 4.44049 593 ft 5 kts 77°
2026-04-27 10:37 50.45629 4.44066 593 ft 0 kts 66°
2026-04-27 10:37 50.45630 4.44066 593 ft 0 kts 66°
2026-04-27 10:37 50.45678 4.44228 593 ft 48 kts 65°
2026-04-27 10:38 50.45916 4.45043 592 ft 114 kts 65°
2026-04-27 10:38 50.46317 4.46412 764 ft 149 kts 65°
2026-04-27 10:38 50.46760 4.47893 1483 ft 152 kts 64°
2026-04-27 10:38 50.47328 4.49306 2151 ft 162 kts 43°
2026-04-27 10:39 50.48264 4.50469 2693 ft 176 kts 43°
2026-04-27 10:39 50.49082 4.51888 3459 ft 180 kts 51°
2026-04-27 10:39 50.49914 4.53456 4040 ft 194 kts 51°
2026-04-27 10:39 50.50814 4.55175 4348 ft 215 kts 51°
2026-04-27 10:40 50.51797 4.57103 4711 ft 237 kts 52°
2026-04-27 10:40 50.52868 4.59254 5013 ft 261 kts 52°
2026-04-27 10:40 50.54006 4.61542 5638 ft 269 kts 52°
2026-04-27 10:40 50.55168 4.63882 6366 ft 274 kts 52°
2026-04-27 10:41 50.56353 4.66272 7095 ft 279 kts 52°
2026-04-27 10:41 50.57551 4.68697 7901 ft 282 kts 52°
2026-04-27 10:41 50.58761 4.71152 8657 ft 285 kts 51°
2026-04-27 10:41 50.59990 4.73647 9446 ft 291 kts 51°
2026-04-27 10:42 50.61222 4.76148 10283 ft 293 kts 51°
2026-04-27 10:42 50.62498 4.78746 10753 ft 311 kts 50°
2026-04-27 10:42 50.63881 4.81559 10948 ft 337 kts 51°
2026-04-27 10:42 50.65078 4.84816 11401 ft 353 kts 71°
2026-04-27 10:43 50.65337 4.88677 12060 ft 360 kts 97°
2026-04-27 10:43 50.64541 4.92410 12869 ft 362 kts 122°
2026-04-27 10:43 50.62942 4.95451 13716 ft 362 kts 136°
2026-04-27 10:43 50.61150 4.98282 14453 ft 368 kts 137°
2026-04-27 10:44 50.59291 5.01134 15126 ft 374 kts 137°
2026-04-27 10:44 50.57406 5.04015 15830 ft 380 kts 137°
2026-04-27 10:44 50.55530 5.06897 16533 ft 385 kts 137°
2026-04-27 10:44 50.53596 5.09888 17207 ft 391 kts 137°
2026-04-27 10:45 50.51646 5.12919 17900 ft 397 kts 137°
2026-04-27 10:45 50.49672 5.15998 18592 ft 401 kts 136°
2026-04-27 10:45 50.47673 5.19120 19197 ft 406 kts 136°
2026-04-27 10:45 50.45690 5.22217 19846 ft 409 kts 137°
2026-04-27 10:46 50.43661 5.25384 20497 ft 412 kts 137°
2026-04-27 10:46 50.41621 5.28566 21118 ft 415 kts 137°
2026-04-27 10:46 50.39556 5.31780 21723 ft 419 kts 137°
2026-04-27 10:46 50.37476 5.35012 22308 ft 423 kts 137°
2026-04-27 10:47 50.35376 5.38273 22906 ft 426 kts 137°
2026-04-27 10:47 50.33259 5.41555 23479 ft 430 kts 137°
2026-04-27 10:47 50.31128 5.44854 23996 ft 434 kts 137°
2026-04-27 10:47 50.28972 5.48188 24441 ft 437 kts 137°
2026-04-27 10:48 50.26802 5.51538 24944 ft 439 kts 138°
2026-04-27 10:48 50.24642 5.54870 25405 ft 442 kts 138°
2026-04-27 10:48 50.22440 5.58262 25810 ft 446 kts 138°
2026-04-27 10:48 50.20216 5.61681 26242 ft 450 kts 138°
2026-04-27 10:49 50.17973 5.65126 26691 ft 452 kts 139°
2026-04-27 10:49 50.15719 5.68584 27122 ft 455 kts 139°
2026-04-27 10:49 50.13457 5.72049 27535 ft 458 kts 139°
2026-04-27 10:49 50.11171 5.75549 27930 ft 461 kts 139°
2026-04-27 10:50 50.08894 5.79026 28304 ft 464 kts 139°
2026-04-27 10:50 50.06579 5.82548 28689 ft 467 kts 139°
2026-04-27 10:50 50.04221 5.86085 29047 ft 470 kts 140°
2026-04-27 10:50 50.01854 5.89612 29429 ft 472 kts 140°
2026-04-27 10:51 49.99474 5.93160 29801 ft 475 kts 140°
2026-04-27 10:51 49.97081 5.96728 30140 ft 477 kts 140°
2026-04-27 10:51 49.94680 6.00304 30450 ft 480 kts 140°
2026-04-27 10:51 49.92283 6.03858 30728 ft 482 kts 140°
2026-04-27 10:52 49.89851 6.07455 31028 ft 483 kts 140°
2026-04-27 10:52 49.87444 6.11117 31302 ft 486 kts 135°
2026-04-27 10:52 49.85328 6.15230 31658 ft 490 kts 127°
2026-04-27 10:52 49.83631 6.19813 32080 ft 490 kts 120°
2026-04-27 10:53 49.82089 6.24522 32529 ft 489 kts 119°
2026-04-27 10:53 49.79015 6.33901 33236 ft 488 kts 120°
2026-04-27 10:53 49.77455 6.38545 33646 ft 486 kts 120°
2026-04-27 10:54 49.75885 6.43165 34090 ft 484 kts 120°
2026-04-27 10:54 49.74337 6.47698 34437 ft 483 kts 120°
2026-04-27 10:54 49.72764 6.52295 34717 ft 483 kts 120°
2026-04-27 10:54 49.71190 6.56883 34962 ft 483 kts 120°
2026-04-27 10:55 49.69613 6.61469 35266 ft 483 kts 120°
2026-04-27 10:55 49.68037 6.66044 35576 ft 482 kts 120°
2026-04-27 10:55 49.66460 6.70613 35866 ft 481 kts 120°
2026-04-27 10:55 49.64902 6.75124 36145 ft 481 kts 120°
2026-04-27 10:56 49.63324 6.79684 36396 ft 481 kts 120°
2026-04-27 10:56 49.61743 6.84244 36651 ft 482 kts 120°
2026-04-27 10:56 49.60157 6.88811 36926 ft 481 kts 120°
2026-04-27 10:56 49.58577 6.93355 37202 ft 481 kts 120°
2026-04-27 10:57 49.56988 6.97915 37202 ft 485 kts 120°
2026-04-27 10:57 49.53803 7.07029 37205 ft 485 kts 120°
2026-04-27 10:58 49.50625 7.16099 37214 ft 477 kts 121°
2026-04-27 10:58 49.47455 7.25108 37220 ft 477 kts 120°
2026-04-27 10:59 49.44305 7.34028 37222 ft 477 kts 120°
2026-04-27 10:59 49.41127 7.42997 37227 ft 478 kts 121°
2026-04-27 11:00 49.36338 7.56458 37211 ft 479 kts 121°
2026-04-27 11:00 49.33130 7.65434 37217 ft 480 kts 120°
2026-04-27 11:01 49.29902 7.74440 37219 ft 481 kts 121°
2026-04-27 11:01 49.26691 7.83366 37217 ft 482 kts 121°
2026-04-27 11:02 49.23450 7.92384 37213 ft 483 kts 120°
2026-04-27 11:02 49.20213 8.01396 37216 ft 483 kts 120°
2026-04-27 11:03 49.16972 8.10390 37215 ft 482 kts 120°
2026-04-27 11:03 49.13742 8.19317 37210 ft 482 kts 120°
2026-04-27 11:04 49.10483 8.28294 37210 ft 482 kts 120°
2026-04-27 11:04 49.07195 8.37211 37206 ft 482 kts 121°
2026-04-27 11:05 49.03908 8.46036 37208 ft 481 kts 121°
2026-04-27 11:05 49.00516 8.54826 37193 ft 479 kts 128°
2026-04-27 11:06 48.95930 8.62048 37194 ft 472 kts 147°
2026-04-27 11:06 48.90487 8.67609 37190 ft 470 kts 150°
2026-04-27 11:07 48.85053 8.73048 37193 ft 471 kts 149°
2026-04-27 11:07 48.79599 8.78569 37189 ft 471 kts 149°
2026-04-27 11:08 48.74150 8.84117 37182 ft 472 kts 149°
2026-04-27 11:08 48.69606 8.88741 37193 ft 472 kts 149°
2026-04-27 11:09 48.64139 8.94288 37201 ft 472 kts 149°
2026-04-27 11:09 48.58696 8.99795 37196 ft 473 kts 149°
2026-04-27 11:10 48.53207 9.05332 37192 ft 474 kts 149°
2026-04-27 11:10 48.47743 9.10829 37201 ft 474 kts 149°
2026-04-27 11:11 48.42234 9.16357 37202 ft 475 kts 149°
2026-04-27 11:11 48.36721 9.21875 37180 ft 476 kts 149°
2026-04-27 11:12 48.31226 9.27361 37204 ft 476 kts 149°
2026-04-27 11:12 48.25702 9.32861 37178 ft 476 kts 149°
2026-04-27 11:13 48.20184 9.38340 37190 ft 475 kts 149°
2026-04-27 11:13 48.14673 9.43799 37199 ft 474 kts 148°
2026-04-27 11:14 48.09154 9.49251 37193 ft 475 kts 148°
2026-04-27 11:14 48.03631 9.54695 37171 ft 475 kts 148°
2026-04-27 11:15 47.98172 9.60141 37190 ft 474 kts 147°
2026-04-27 11:15 47.92715 9.65745 37194 ft 475 kts 147°
2026-04-27 11:16 47.87300 9.71306 37187 ft 475 kts 147°
2026-04-27 11:16 47.81842 9.76873 37194 ft 475 kts 147°
2026-04-27 11:17 47.76374 9.82423 37179 ft 475 kts 147°
2026-04-27 11:17 47.70908 9.87956 37183 ft 475 kts 147°
2026-04-27 11:18 47.65474 9.93443 37189 ft 475 kts 147°
2026-04-27 11:18 47.59992 9.98964 37188 ft 475 kts 147°
2026-04-27 11:19 47.54515 10.04466 37173 ft 475 kts 147°
2026-04-27 11:19 47.49037 10.09955 37192 ft 475 kts 147°
2026-04-27 11:20 47.43564 10.15426 37187 ft 475 kts 147°
2026-04-27 11:20 47.38121 10.20853 37178 ft 475 kts 147°
2026-04-27 11:21 47.32633 10.26310 37170 ft 475 kts 147°
2026-04-27 11:21 47.27147 10.31751 37177 ft 475 kts 147°
2026-04-27 11:22 47.21647 10.37194 37179 ft 475 kts 147°
2026-04-27 11:22 47.16160 10.42611 37187 ft 475 kts 147°
2026-04-27 11:23 47.10708 10.47980 37164 ft 475 kts 147°
2026-04-27 11:23 47.05107 10.53070 37165 ft 473 kts 156°
2026-04-27 11:24 46.98908 10.56117 37170 ft 469 kts 165°
2026-04-27 11:24 46.92637 10.58815 37173 ft 469 kts 165°
2026-04-27 11:25 46.86415 10.61613 37175 ft 470 kts 164°
2026-04-27 11:25 46.80157 10.64432 37215 ft 470 kts 164°
2026-04-27 11:26 46.73887 10.67234 37189 ft 471 kts 164°
2026-04-27 11:26 46.67653 10.69920 37186 ft 469 kts 166°
2026-04-27 11:27 46.61361 10.72465 37208 ft 468 kts 166°
2026-04-27 11:27 46.55065 10.74999 37207 ft 469 kts 166°
2026-04-27 11:28 46.48803 10.77535 37209 ft 471 kts 165°
2026-04-27 11:28 46.42462 10.80110 37215 ft 470 kts 165°
2026-04-27 11:29 46.36193 10.82652 37226 ft 471 kts 165°
2026-04-27 11:29 46.29874 10.85208 37235 ft 470 kts 165°
2026-04-27 11:30 46.23561 10.87754 37242 ft 470 kts 165°
2026-04-27 11:30 46.17285 10.90279 37230 ft 470 kts 165°
2026-04-27 11:31 46.10979 10.92811 37226 ft 469 kts 165°
2026-04-27 11:31 46.04710 10.95322 37225 ft 468 kts 166°
2026-04-27 11:32 45.98424 10.97833 37212 ft 468 kts 165°
2026-04-27 11:32 45.92138 11.00339 37194 ft 467 kts 165°
2026-04-27 11:33 45.85919 11.02812 37202 ft 467 kts 165°
2026-04-27 11:33 45.79651 11.05298 37199 ft 467 kts 165°
2026-04-27 11:34 45.73384 11.07779 37183 ft 467 kts 165°
2026-04-27 11:34 45.67112 11.10256 37170 ft 467 kts 165°
2026-04-27 11:35 45.60892 11.12706 37146 ft 467 kts 166°
2026-04-27 11:35 45.54623 11.15170 37143 ft 465 kts 165°
2026-04-27 11:36 45.48378 11.17619 37150 ft 465 kts 165°
2026-04-27 11:36 45.42167 11.20050 37144 ft 465 kts 165°
2026-04-27 11:37 45.35921 11.22488 37145 ft 465 kts 165°
2026-04-27 11:37 45.29679 11.24919 37139 ft 465 kts 165°
2026-04-27 11:38 45.23439 11.27344 37154 ft 465 kts 165°
2026-04-27 11:38 45.17190 11.29767 37146 ft 465 kts 166°
2026-04-27 11:39 45.10993 11.32164 37147 ft 465 kts 166°
2026-04-27 11:39 45.04742 11.34576 37149 ft 465 kts 166°
2026-04-27 11:40 44.98489 11.36984 37141 ft 465 kts 165°
2026-04-27 11:40 44.92242 11.39384 37147 ft 465 kts 166°
2026-04-27 11:41 44.86004 11.41776 37141 ft 465 kts 166°
2026-04-27 11:41 44.79790 11.44152 37137 ft 465 kts 165°
2026-04-27 11:42 44.73541 11.46537 37116 ft 465 kts 166°
2026-04-27 11:42 44.67279 11.48922 37114 ft 465 kts 166°
2026-04-27 11:43 44.61069 11.51281 37108 ft 465 kts 166°
2026-04-27 11:43 44.54814 11.53653 37112 ft 465 kts 166°
2026-04-27 11:44 44.51681 11.54838 36852 ft 469 kts 165°
2026-04-27 11:44 44.48523 11.56032 36321 ft 469 kts 165°
2026-04-27 11:44 44.45384 11.57217 35701 ft 467 kts 165°
2026-04-27 11:44 44.42247 11.58400 35029 ft 467 kts 165°
2026-04-27 11:45 44.39093 11.59588 34361 ft 468 kts 165°
2026-04-27 11:45 44.37013 11.60371 33878 ft 468 kts 165°
2026-04-27 11:45 44.32829 11.61945 32829 ft 469 kts 165°
2026-04-27 11:45 44.29686 11.63125 32242 ft 466 kts 165°
2026-04-27 11:46 44.26570 11.64294 31714 ft 461 kts 165°
2026-04-27 11:46 44.23486 11.65450 31195 ft 457 kts 165°
2026-04-27 11:46 44.20421 11.66597 30684 ft 453 kts 165°
2026-04-27 11:46 44.17381 11.67734 30181 ft 449 kts 165°
2026-04-27 11:47 44.14403 11.68847 29596 ft 445 kts 165°
2026-04-27 11:47 44.11389 11.69971 29068 ft 441 kts 165°
2026-04-27 11:47 44.08475 11.71057 28538 ft 437 kts 165°
2026-04-27 11:47 44.05551 11.72146 28028 ft 432 kts 165°
2026-04-27 11:48 44.02655 11.73224 27512 ft 431 kts 165°
2026-04-27 11:48 43.99737 11.74308 26999 ft 432 kts 165°
2026-04-27 11:48 43.96839 11.75384 26482 ft 428 kts 166°
2026-04-27 11:48 43.93974 11.76446 25971 ft 424 kts 166°
2026-04-27 11:49 43.91164 11.77488 25481 ft 421 kts 166°
2026-04-27 11:49 43.88349 11.78529 24989 ft 418 kts 166°
2026-04-27 11:49 43.85543 11.79568 24499 ft 415 kts 166°
2026-04-27 11:49 43.82761 11.80596 24010 ft 412 kts 166°
2026-04-27 11:50 43.79997 11.81616 23450 ft 410 kts 166°
2026-04-27 11:50 43.77245 11.82603 22898 ft 405 kts 169°
2026-04-27 11:50 43.74486 11.83280 22417 ft 400 kts 173°
2026-04-27 11:50 43.71738 11.83804 21919 ft 397 kts 174°
2026-04-27 11:51 43.69036 11.84281 21430 ft 393 kts 174°
2026-04-27 11:51 43.66337 11.84759 20950 ft 390 kts 174°
2026-04-27 11:51 43.60989 11.85749 20003 ft 385 kts 173°
2026-04-27 11:52 43.58346 11.86254 19527 ft 382 kts 173°
2026-04-27 11:52 43.55714 11.86762 19067 ft 380 kts 173°
2026-04-27 11:52 43.53122 11.87265 18588 ft 379 kts 173°
2026-04-27 11:52 43.50506 11.87772 18060 ft 377 kts 173°
2026-04-27 11:53 43.47919 11.88274 17554 ft 374 kts 173°
2026-04-27 11:53 43.45346 11.88772 17065 ft 371 kts 173°
2026-04-27 11:53 43.42800 11.89265 16599 ft 368 kts 173°
2026-04-27 11:53 43.40257 11.89756 16124 ft 366 kts 173°
2026-04-27 11:54 43.37775 11.90235 15673 ft 362 kts 172°
2026-04-27 11:54 43.35285 11.90716 15224 ft 359 kts 172°
2026-04-27 11:54 43.32819 11.91191 14775 ft 357 kts 172°
2026-04-27 11:54 43.30362 11.91708 14316 ft 355 kts 167°
2026-04-27 11:55 43.28808 11.92409 14019 ft 353 kts 155°
2026-04-27 11:55 43.26152 11.94896 13412 ft 348 kts 135°
2026-04-27 11:55 43.24513 11.97320 12969 ft 344 kts 131°
2026-04-27 11:55 43.22936 11.99772 12516 ft 341 kts 131°
2026-04-27 11:56 43.21371 12.02194 12080 ft 338 kts 131°
2026-04-27 11:56 43.20334 12.03778 11939 ft 332 kts 131°
2026-04-27 11:56 43.18812 12.06077 11801 ft 321 kts 132°
2026-04-27 11:56 43.17329 12.08304 11654 ft 310 kts 131°
2026-04-27 11:57 43.15956 12.10520 11516 ft 300 kts 121°
2026-04-27 11:57 43.15230 12.13157 11212 ft 296 kts 102°
2026-04-27 11:57 43.14669 12.15851 10873 ft 294 kts 117°
2026-04-27 11:57 43.13355 12.17965 10576 ft 293 kts 143°
2026-04-27 11:58 43.11561 12.19190 10335 ft 289 kts 160°
2026-04-27 11:58 43.09682 12.20084 10207 ft 282 kts 160°
2026-04-27 11:58 43.07836 12.20958 9945 ft 279 kts 160°
2026-04-27 11:58 43.06006 12.21837 9640 ft 278 kts 160°
2026-04-27 11:59 43.04187 12.22719 9345 ft 277 kts 160°
2026-04-27 11:59 43.02374 12.23600 9027 ft 276 kts 160°
2026-04-27 11:59 43.00560 12.24481 8675 ft 276 kts 160°
2026-04-27 11:59 42.98742 12.25362 8335 ft 277 kts 160°
2026-04-27 12:00 42.96928 12.26240 7989 ft 277 kts 160°
2026-04-27 12:00 42.95107 12.27121 7650 ft 277 kts 160°
2026-04-27 12:00 42.93367 12.28233 7278 ft 278 kts 141°
2026-04-27 12:00 42.92084 12.30140 6961 ft 277 kts 129°
2026-04-27 12:01 42.90863 12.32190 6615 ft 278 kts 129°
2026-04-27 12:01 42.89630 12.34248 6148 ft 283 kts 128°
2026-04-27 12:01 42.88700 12.36604 5720 ft 284 kts 103°
2026-04-27 12:01 42.88689 12.39272 5345 ft 284 kts 76°
2026-04-27 12:02 42.89561 12.41666 4980 ft 284 kts 50°
2026-04-27 12:02 42.90990 12.43485 4598 ft 278 kts 38°
2026-04-27 12:02 42.92488 12.45107 4265 ft 270 kts 33°
2026-04-27 12:02 42.94186 12.46050 3957 ft 262 kts 10°
2026-04-27 12:03 42.95933 12.46536 3588 ft 256 kts 12°
2026-04-27 12:03 42.97616 12.47125 3281 ft 241 kts 13°
2026-04-27 12:03 42.99187 12.47685 2833 ft 225 kts 13°
2026-04-27 12:03 43.00632 12.48195 2521 ft 206 kts 13°
2026-04-27 12:04 43.01973 12.48666 2205 ft 193 kts 13°
2026-04-27 12:04 43.03241 12.49115 2008 ft 181 kts 13°
2026-04-27 12:04 43.04409 12.49511 1792 ft 163 kts 13°
2026-04-27 12:04 43.05456 12.49878 1549 ft 146 kts 13°
2026-04-27 12:05 43.06416 12.50215 1258 ft 141 kts 13°
2026-04-27 12:05 43.07378 12.50553 1055 ft 147 kts 14°
2026-04-27 12:05 43.08386 12.50897 825 ft 151 kts 13°
2026-04-27 12:05 43.09390 12.51254 672 ft 139 kts 12°
2026-04-27 12:06 43.10152 12.51519 669 ft 69 kts 14°
2026-04-27 12:06 43.10544 12.51655 669 ft 40 kts 14°
2026-04-27 12:06 43.10693 12.51706 667 ft 8 kts 13°
2026-04-27 12:06 43.10703 12.51709 665 ft 0 kts
2026-04-27 12:07 43.10741 12.51702 668 ft 9 kts 335°
2026-04-27 12:07 43.10770 12.51630 668 ft 9 kts 283°
2026-04-27 12:07 43.10772 12.51526 668 ft 15 kts 244°
2026-04-27 12:07 43.10673 12.51468 668 ft 16 kts 194°
2026-04-27 12:08 43.10560 12.51429 668 ft 15 kts 195°
2026-04-27 12:08 43.10478 12.51400 668 ft 16 kts 194°
2026-04-27 12:08 43.10351 12.51356 668 ft 22 kts 193°
2026-04-27 12:08 43.10185 12.51298 668 ft 27 kts 194°
2026-04-27 12:09 43.09986 12.51229 668 ft 31 kts 194°
2026-04-27 12:09 43.09794 12.51158 668 ft 26 kts 209°
2026-04-27 12:09 43.09703 12.50954 668 ft 24 kts 245°
2026-04-27 12:09 43.09636 12.50750 668 ft 23 kts 246°
2026-04-27 12:10 43.09575 12.50565 668 ft 14 kts 245°
2026-04-27 12:10 43.09555 12.50479 668 ft 9 kts 275°
2026-04-27 12:10 43.09581 12.50419 668 ft 7 kts 284°
2026-04-27 12:10 43.09573 12.50370 666 ft 2 kts 248°
2026-04-27 12:11 43.09575 12.50354 668 ft 1 kts 288°
2026-04-27 12:11 43.09576 12.50350 668 ft 0 kts 287°